FW4030 Weather Reports


Display with metric or nautical units.
time (UTC)temp
F
wind
direction
speed
MPH
gust
MPH
rain 1hr
in
rain 24hr
in
rain mn
in
humidity
%
barometer
mb
20260831160123 68 170 9.0 14.0 0.00 0.00 0.00 70 1022.7
20260831155221 68 173 11.0 14.0 0.00 0.00 0.00 73 1022.6
20260831154221 66 180 11.0 15.0 0.00 0.00 0.00 77 1022.5
20260831153223 66 164 5.0 7.0 0.00 0.00 0.00 77 1022.3
20260831152224 66 152 6.0 11.0 0.00 0.00 0.00 76 1022.1
20260831150322 67 143 9.0 14.0 0.00 0.00 0.00 76 1021.9
20260831144324 68 124 3.0 8.0 0.00 0.00 0.00 78 1021.5
20260831143322 68 123 7.0 15.0 0.00 0.00 0.00 82 1021.5
20260831142420 68 163 9.0 14.0 0.00 0.00 0.00 85 1021.5
20260831141422 67 133 3.0 8.0 0.00 0.00 0.00 88 1021.3
20260831140421 65 161 5.0 11.0 0.00 0.00 0.00 89 1021.3
20260831135421 64 131 4.0 9.0 0.00 0.00 0.00 91 1021.4
20260831135321 64 113 3.0 9.0 0.00 0.00 0.00 91 1021.3
20260831135238 63 127 4.0 9.0 0.00 0.00 0.00 91 1021.3
20260831133222 60 152 5.0 7.0 0.00 0.00 0.00 88 1021.3
20260831133122 60 112 4.0 6.0 0.00 0.00 0.00 88 1021.2
20260831131122 62 145 8.0 11.0 0.00 0.00 0.00 82 1021.3
20260831130122 64 175 5.0 9.0 0.00 0.00 0.00 80 1021.2
20260831125220 67 155 7.0 14.0 0.00 0.00 0.00 77 1020.9
20260831124232 68 124 11.0 15.0 0.00 0.00 0.00 81 1020.6
20260831123122 65 120 7.0 15.0 0.00 0.00 0.00 85 1020.6
20260831122122 64 121 8.0 13.0 0.00 0.00 0.00 86 1020.8
20260831121121 64 124 5.0 10.0 0.00 0.00 0.00 87 1020.9
20260831121022 63 124 10.0 16.0 0.00 0.00 0.00 88 1021.0
20260831120121 62 112 4.0 7.0 0.00 0.00 0.00 87 1020.9
20260831115122 62 113 5.0 9.0 0.00 0.00 0.00 84 1020.9
20260831114123 64 132 6.0 13.0 0.00 0.00 0.00 79 1021.0
20260831113122 66 120 7.0 11.0 0.00 0.00 0.00 71 1020.7
20260831113023 67 114 8.0 13.0 0.00 0.00 0.00 70 1020.6
20260831111022 69 170 8.0 14.0 0.00 0.00 0.00 66 1020.0
20260831110023 69 123 7.0 17.0 0.00 0.00 0.00 66 1020.2
20260831105022 69 115 14.0 22.0 0.00 0.00 0.00 66 1020.0
20260831104023 69 116 12.0 23.0 0.00 0.00 0.00 67 1019.9
20260831102022 69 125 11.0 17.0 0.00 0.00 0.00 69 1019.9
20260831101022 68 119 8.0 13.0 0.00 0.00 0.00 70 1019.9
20260831100021 68 117 7.0 12.0 0.00 0.00 0.00 72 1019.9
20260831095923 68 119 8.0 12.0 0.00 0.00 0.00 72 1019.8
20260831094023 67 122 8.0 13.0 0.00 0.00 0.00 73 1019.8
20260831092021 67 118 9.0 13.0 0.00 0.00 0.00 75 1019.9
20260831091022 66 129 7.0 14.0 0.00 0.00 0.00 77 1020.0
20260831090020 67 116 4.0 9.0 0.00 0.00 0.00 78 1019.8
20260831085921 66 121 6.0 11.0 0.00 0.00 0.00 79 1020.0
20260831084922 65 118 4.0 12.0 0.00 0.00 0.00 80 1020.0
20260831083922 65 126 5.0 9.0 0.00 0.00 0.00 80 1019.8
20260831082920 65 118 6.0 10.0 0.00 0.00 0.00 79 1020.0
20260831081921 66 114 10.0 14.0 0.00 0.00 0.00 79 1019.9
20260831081020 66 121 7.0 11.0 0.00 0.00 0.00 81 1019.8
20260831074021 65 122 3.0 6.0 0.00 0.00 0.00 85 1019.9
20260831073023 64 121 6.0 8.0 0.00 0.00 0.00 86 1020.1
20260831072021 64 114 8.0 15.0 0.00 0.00 0.00 86 1020.1
20260831071022 63 122 9.0 14.0 0.00 0.00 0.00 87 1020.2
20260831070020 63 136 6.0 10.0 0.00 0.00 0.00 88 1020.2
20260831065022 62 121 5.0 12.0 0.00 0.00 0.00 89 1020.2
20260831064023 62 121 9.0 16.0 0.00 0.00 0.00 91 1019.9
20260831063021 61 122 6.0 12.0 0.00 0.00 0.00 91 1020.1
20260831062023 61 117 7.0 12.0 0.00 0.00 0.00 92 1020.1
20260831061020 60 120 5.0 8.0 0.00 0.00 0.00 92 1019.9
20260831060020 60 125 3.0 4.0 0.00 0.00 0.00 93 1019.9
20260831055023 60 131 5.0 10.0 0.00 0.00 0.00 93 1019.8
20260831054921 59 128 5.0 9.0 0.00 0.00 0.00 93 1019.8
20260831054823 59 128 5.0 7.0 0.00 0.00 0.00 93 1019.9
20260831053821 59 122 4.0 7.0 0.00 0.00 0.00 94 1019.8
20260831052724 59 127 3.0 8.0 0.00 0.00 0.00 94 1019.9
20260831051722 59 124 4.0 6.0 0.00 0.00 0.00 94 1019.8
20260831050721 59 122 2.0 4.0 0.00 0.00 0.00 94 1019.8
20260831050622 59 127 2.0 7.0 0.00 0.00 0.00 94 1019.8
20260831050520 59 121 3.0 7.0 0.00 0.00 0.00 94 1019.9
20260831045521 59 131 4.0 7.0 0.00 0.00 0.00 94 1019.8
20260831044522 59 122 3.0 6.0 0.00 0.00 0.00 94 1019.8
20260831041620 59 131 3.0 7.0 0.00 0.00 0.00 94 1019.5
20260831040620 59 135 3.0 4.0 0.00 0.00 0.00 93 1019.7
20260831040523 59 135 1.0 2.0 0.00 0.00 0.00 93 1019.6
20260831035522 59 129 3.0 5.0 0.00 0.00 0.00 92 1019.5
20260831033622 59 132 4.0 6.0 0.00 0.00 0.00 93 1019.7
20260831032721 59 122 3.0 6.0 0.00 0.00 0.00 92 1019.7
20260831030820 59 120 2.0 4.0 0.00 0.00 0.00 91 1019.9
20260831024823 60 135 1.0 2.0 0.00 0.00 0.00 90 1019.7
20260831023851 60 135 0.0 1.0 0.00 0.00 0.00 90 1019.6
20260831022821 60 129 2.0 3.0 0.00 0.00 0.00 90 1019.6
20260831021821 61 119 4.0 6.0 0.00 0.00 0.00 89 1019.7
20260831015823 61 135 0.0 0.0 0.00 0.00 0.00 88 1019.5
20260831014921 61 135 2.0 4.0 0.00 0.00 0.00 88 1019.6
20260831014819 61 131 3.0 4.0 0.00 0.00 0.00 88 1019.5
20260831013822 61 131 2.0 3.0 0.00 0.00 0.00 86 1019.5
20260831010821 63 128 2.0 4.0 0.00 0.00 0.00 86 1019.7
20260831005823 63 130 4.0 6.0 0.00 0.00 0.00 84 1019.7
20260831004921 63 126 6.0 8.0 0.00 0.00 0.00 85 1020.0
20260831004020 63 135 3.0 4.0 0.00 0.00 0.00 85 1019.9
20260831003022 63 135 2.0 5.0 0.00 0.00 0.00 85 1020.1
20260831002920 63 135 3.0 5.0 0.00 0.00 0.00 85 1020.0
20260831001922 63 135 1.0 1.0 0.00 0.00 0.00 85 1019.9
20260831000922 62 135 2.0 3.0 0.00 0.00 0.00 86 1020.2
20260831000822 62 135 2.0 4.0 0.00 0.00 0.00 86 1020.3
20260830235822 62 126 2.0 4.0 0.00 0.00 0.00 86 1020.3
20260830234920 62 135 2.0 4.0 0.00 0.00 0.00 85 1020.2
20260830234821 62 135 1.0 3.0 0.00 0.00 0.00 85 1020.3
20260830233822 62 135 2.0 4.0 0.00 0.00 0.00 84 1020.3
20260830232820 62 135 2.0 3.0 0.00 0.00 0.00 83 1020.3
20260830231821 63 135 2.0 3.0 0.00 0.00 0.00 83 1020.1
20260830230821 63 135 2.0 3.0 0.00 0.00 0.00 83 1020.2
20260830225822 63 135 2.0 3.0 0.00 0.00 0.00 83 1020.3
20260830223920 63 135 2.0 4.0 0.00 0.00 0.00 81 1020.4
20260830223837 63 135 2.0 4.0 0.00 0.00 0.00 81 1020.4
20260830223722 64 135 2.0 4.0 0.00 0.00 0.00 81 1020.4
20260830222821 64 135 1.0 3.0 0.00 0.00 0.00 80 1020.6
20260830221822 64 135 2.0 3.0 0.00 0.00 0.00 80 1020.6
20260830215923 65 135 2.0 2.0 0.00 0.00 0.00 79 1020.6
20260830215823 65 135 2.0 3.0 0.00 0.00 0.00 79 1020.6
20260830214824 65 135 3.0 4.0 0.00 0.00 0.00 79 1020.8
20260830213822 65 135 1.0 4.0 0.00 0.00 0.00 78 1020.9
20260830213723 65 135 2.0 4.0 0.00 0.00 0.00 78 1020.9
20260830212821 65 135 3.0 4.0 0.00 0.00 0.00 78 1020.8
20260830211823 65 135 2.0 4.0 0.00 0.00 0.00 78 1021.0
20260830210824 65 135 2.0 3.0 0.00 0.00 0.00 77 1021.0
20260830205922 65 135 2.0 4.0 0.00 0.00 0.00 79 1021.0
20260830204923 64 119 3.0 4.0 0.00 0.00 0.00 79 1021.1
20260830203924 64 135 2.0 3.0 0.00 0.00 0.00 79 1021.1
20260830202924 64 135 2.0 3.0 0.00 0.00 0.00 79 1021.1
20260830202022 64 135 2.0 3.0 0.00 0.00 0.00 79 1021.2
20260830201025 64 135 3.0 4.0 0.00 0.00 0.00 79 1021.2
20260830200121 64 135 3.0 5.0 0.00 0.00 0.00 79 1021.4
20260830200024 64 135 3.0 4.0 0.00 0.00 0.00 79 1021.3
20260830195024 64 135 1.0 3.0 0.00 0.00 0.00 78 1021.3
20260830194123 65 135 2.0 3.0 0.00 0.00 0.00 77 1021.3
20260830193124 65 135 2.0 3.0 0.00 0.00 0.00 75 1021.4
20260830192222 66 135 3.0 4.0 0.00 0.00 0.00 74 1021.6
20260830191223 66 135 2.0 4.0 0.00 0.00 0.00 72 1021.6
20260830190224 66 135 2.0 4.0 0.00 0.00 0.00 72 1021.6
20260830185224 66 133 1.0 4.0 0.00 0.00 0.00 72 1021.6
20260830184224 67 130 3.0 4.0 0.00 0.00 0.00 70 1021.4
20260830184123 67 135 3.0 6.0 0.00 0.00 0.00 70 1021.5
20260830184024 67 135 3.0 5.0 0.00 0.00 0.00 71 1021.5
20260830183024 67 135 3.0 4.0 0.00 0.00 0.00 70 1021.5
20260830182122 67 135 2.0 4.0 0.00 0.00 0.00 69 1021.4
20260830181124 68 134 0.0 1.0 0.00 0.00 0.00 67 1021.4
20260830180123 68 132 3.0 5.0 0.00 0.00 0.00 66 1021.5
20260830180022 69 135 2.0 6.0 0.00 0.00 0.00 65 1021.6
20260830175025 69 122 1.0 3.0 0.00 0.00 0.00 65 1021.4
20260830174122 70 121 3.0 5.0 0.00 0.00 0.00 64 1021.5
20260830173123 70 134 3.0 4.0 0.00 0.00 0.00 64 1021.5
20260830173023 70 134 3.0 5.0 0.00 0.00 0.00 64 1021.6
20260830172024 70 134 2.0 5.0 0.00 0.00 0.00 63 1021.6
20260830170023 70 124 3.0 5.0 0.00 0.00 0.00 65 1021.7
20260830165122 70 141 5.0 9.0 0.00 0.00 0.00 67 1021.6
20260830164124 70 115 2.0 4.0 0.00 0.00 0.00 70 1021.8
20260830163122 71 123 2.0 4.0 0.00 0.00 0.00 72 1021.7
20260830162124 71 119 1.0 3.0 0.00 0.00 0.00 73 1021.9
20260830161125 72 180 2.0 3.0 0.00 0.00 0.00 72 1021.9